Tracking 17925 objects as of 20-February-2017
HD Live streaming from Space Station
objects crossing your sky now

COSMOS 482 DESCENT CRAFT

Track COSMOS 482 DESCENT CRAFT now!
10-day predictions
COSMOS 482 DESCENT CRAFT is classified as:


NORAD ID: 6073
Int'l Code: 1972-023E
Perigee: 210.5 km
Apogee: 2,661.6 km
Inclination: 52.1 °
Period: 114.4 minutes
Semi major axis: 7807 km
RCS: 0.7153 m2 (medium)
Launch date: March 31, 1972
Source: Commonwealth of Independent States (former USSR) (CIS)
Launch site: TYURATAM MISSILE AND SPACE COMPLEX (TTMTR)
Your satellite tracking list
Your tracking list is empty





NASA's NSSDC Master Catalog

Two Line Element Set (TLE):
1 06073U 72023E   17050.70101448  .00024597  54921-5  12299-3 0  9997
2 06073  52.0572 111.9353 1569802  27.9647 339.7277 12.58559176346222
Source of the keplerian elements: AFSPC